This is the latest recevied weather packets stored in our database for station/object SP9TWP-3. If no packets are shown the sender has not sent any weather packets the latest 10 day(s).
| Time | Temp. | Humidity | Pressure | Rain* | Wind** | Luminosity | Snow |
|---|---|---|---|---|---|---|---|
| 1777768282 | 11.11° C | 55% | 1018.2 hPa | - | - | - | - |
| 1777767382 | 11.11° C | 55% | 1018.3 hPa | - | - | - | - |
| 1777766482 | 11.11° C | 55% | 1018.3 hPa | - | - | - | - |
| 1777765582 | 11.11° C | 53% | 1018.3 hPa | - | - | - | - |
| 1777764681 | 11.67° C | 53% | 1018.6 hPa | - | - | - | - |
| 1777763781 | 11.67° C | 53% | 1018.6 hPa | - | - | - | - |
| 1777762881 | 11.67° C | 54% | 1018.6 hPa | - | - | - | - |
| 1777761981 | 11.67° C | 53% | 1018.8 hPa | - | - | - | - |
| 1777761081 | 12.22° C | 52% | 1018.8 hPa | - | - | - | - |
| 1777760181 | 12.22° C | 50% | 1018.9 hPa | - | - | - | - |
| 1777759280 | 12.78° C | 51% | 1019 hPa | - | - | - | - |
| 1777758380 | 12.78° C | 50% | 1019.2 hPa | - | - | - | - |
| 1777757480 | 13.33° C | 48% | 1019.2 hPa | - | - | - | - |
| 1777756580 | 13.33° C | 48% | 1019.2 hPa | - | - | - | - |
| 1777755680 | 13.89° C | 46% | 1019.3 hPa | - | - | - | - |
| 1777754780 | 14.44° C | 46% | 1019.4 hPa | - | - | - | - |
| 1777753879 | 14.44° C | 45% | 1019.5 hPa | - | - | - | - |
| 1777752979 | 15° C | 43% | 1019.5 hPa | - | - | - | - |
| 1777752079 | 15.56° C | 42% | 1019.7 hPa | - | - | - | - |
| 1777751179 | 15.56° C | 41% | 1019.7 hPa | - | - | - | - |
| 1777750279 | 16.11° C | 40% | 1019.7 hPa | - | - | - | - |
| 1777749378 | 16.67° C | 39% | 1019.7 hPa | - | - | - | - |
| 1777748478 | 16.67° C | 38% | 1019.7 hPa | - | - | - | - |
| 1777747578 | 17.22° C | 37% | 1019.6 hPa | - | - | - | - |
| 1777746678 | 17.78° C | 35% | 1019.6 hPa | - | - | - | - |
* Rain since midnight (hover to see other rain measurements)
** Current wind speed in m/s (hover to see current wind gust speed)